AF7DW Weather Reports


time (UTC)temp
C
wind
direction
speed
KPH
gust
KPH
rain 1hr
cm
rain 24hr
cm
rain mn
cm
humidity
%
barometer
mb
20260502162037 18 0 0.0 0.0 0.00 0.00 0.00 23 1021.6
20260502161601 18 0 0.0 0.0 0.00 0.00 0.00 23 1021.6
20260502161038 18 0 0.0 0.0 0.00 0.00 0.00 25 1021.6
20260502160539 18 0 0.0 0.0 0.00 0.00 0.00 27 1021.6
20260502152041 15 0 0.0 1.6 0.00 0.00 0.00 29 1021.5
20260502151549 15 0 0.0 0.0 0.00 0.00 0.00 31 1021.5
20260502151043 14 0 0.0 0.0 0.00 0.00 0.00 31 1021.4
20260502150539 13 0 0.0 0.0 0.00 0.00 0.00 36 1021.5
20260502130542 8 0 0.0 0.0 0.00 0.00 0.00 40 1020.9
20260502123538 7 0 0.0 0.0 0.00 0.00 0.00 39 1020.7
20260502123045 7 0 0.0 0.0 0.00 0.00 0.00 38 1020.7
20260502122540 7 0 0.0 0.0 0.00 0.00 0.00 38 1020.7
20260502122039 7 0 0.0 0.0 0.00 0.00 0.00 37 1020.7
20260502121551 7 0 0.0 0.0 0.00 0.00 0.00 37 1020.6
20260502121040 7 0 0.0 0.0 0.00 0.00 0.00 37 1020.6
20260502120542 7 0 0.0 0.0 0.00 0.00 0.00 36 1020.6
20260502115536 7 0 0.0 0.0 0.00 0.00 0.00 37 1020.6
20260502115036 7 0 0.0 0.0 0.00 0.00 0.00 37 1020.5
20260502114552 7 0 0.0 0.0 0.00 0.00 0.00 37 1020.6
20260502114039 7 0 0.0 0.0 0.00 0.00 0.00 38 1020.7
20260502113535 7 0 0.0 0.0 0.00 0.00 0.00 38 1020.7
20260502113051 7 0 0.0 0.0 0.00 0.00 0.00 40 1020.8
20260502112540 7 0 0.0 0.0 0.00 0.00 0.00 39 1020.9
20260502112039 7 0 0.0 0.0 0.00 0.00 0.00 39 1020.8
20260502111554 8 0 0.0 0.0 0.00 0.00 0.00 39 1020.9
20260502111039 8 0 0.0 0.0 0.00 0.00 0.00 39 1020.8
20260502110539 8 0 0.0 0.0 0.00 0.00 0.00 38 1020.8
20260502110054 8 0 0.0 0.0 0.00 0.00 0.00 38 1020.8
20260502105539 8 0 0.0 0.0 0.00 0.00 0.00 38 1020.8
20260502105039 8 0 0.0 0.0 0.00 0.00 0.00 37 1020.8
20260502104553 8 0 0.0 0.0 0.00 0.00 0.00 37 1020.7
20260502104036 8 0 0.0 0.0 0.00 0.00 0.00 37 1020.7
20260502103536 8 0 0.0 0.0 0.00 0.00 0.00 37 1020.6
20260502103046 8 0 0.0 0.0 0.00 0.00 0.00 37 1020.6
20260502102538 8 0 0.0 0.0 0.00 0.00 0.00 36 1020.7
20260502102036 8 0 0.0 0.0 0.00 0.00 0.00 38 1020.7
20260502101553 8 0 0.0 0.0 0.00 0.00 0.00 38 1020.7
20260502101042 8 0 0.0 0.0 0.00 0.00 0.00 38 1020.6
20260502100539 9 0 0.0 0.0 0.00 0.00 0.00 37 1020.7
20260502091039 10 0 0.0 0.0 0.00 0.00 0.00 32 1020.6
20260502090536 10 0 0.0 0.0 0.00 0.00 0.00 30 1020.5
20260502071043 10 0 0.0 0.0 0.00 0.00 0.00 33 1020.6
20260502070543 10 0 0.0 0.0 0.00 0.00 0.00 34 1020.7
20260502065537 11 0 0.0 0.0 0.00 0.00 0.00 34 1020.7
20260502065036 11 0 0.0 0.0 0.00 0.00 0.00 35 1020.7
20260502064548 11 0 0.0 0.0 0.00 0.00 0.00 35 1020.8
20260502064039 11 0 0.0 0.0 0.00 0.00 0.00 35 1020.7
20260502063537 11 0 0.0 0.0 0.00 0.00 0.00 36 1020.7
20260502063045 11 0 0.0 0.0 0.00 0.00 0.00 36 1020.7
20260502062543 11 0 0.0 0.0 0.00 0.00 0.00 36 1020.6
20260502062041 11 0 0.0 0.0 0.00 0.00 0.00 36 1020.5
20260502061550 11 0 0.0 0.0 0.00 0.00 0.00 37 1020.5
20260502061039 11 0 0.0 0.0 0.00 0.00 0.00 36 1020.5
20260502060544 11 0 0.0 0.0 0.00 0.00 0.00 35 1020.5
20260502060048 11 0 0.0 1.6 0.00 0.00 0.00 35 1020.5
20260502055539 11 0 0.0 1.6 0.00 0.00 0.00 36 1020.5
20260502055039 11 0 0.0 0.0 0.00 0.00 0.00 35 1020.5
20260502054545 11 0 0.0 0.0 0.00 0.00 0.00 36 1020.4
20260502054036 11 0 0.0 0.0 0.00 0.00 0.00 37 1020.4
20260502053538 12 0 0.0 0.0 0.00 0.00 0.00 36 1020.4
20260502053059 12 0 0.0 0.0 0.00 0.00 0.00 36 1020.4
20260502052539 12 0 0.0 0.0 0.00 0.00 0.00 36 1020.4
20260502052040 12 0 0.0 0.0 0.00 0.00 0.00 36 1020.3
20260502051603 12 0 0.0 0.0 0.00 0.00 0.00 36 1020.4
20260502051040 12 0 0.0 1.6 0.00 0.00 0.00 35 1020.4
20260502050539 12 0 0.0 1.6 0.00 0.00 0.00 34 1020.3
20260502050047 12 0 0.0 0.0 0.00 0.00 0.00 34 1020.3
20260502045540 12 0 0.0 0.0 0.00 0.00 0.00 34 1020.2
20260502045041 12 0 0.0 0.0 0.00 0.00 0.00 34 1020.2
20260502044549 12 0 0.0 0.0 0.00 0.00 0.00 33 1020.2
20260502044039 12 0 0.0 4.8 0.00 0.00 0.00 34 1020.1
20260502043539 13 0 0.0 4.8 0.00 0.00 0.00 33 1020.2
20260502043055 13 0 0.0 0.0 0.00 0.00 0.00 33 1020.1
20260502042541 13 0 0.0 0.0 0.00 0.00 0.00 33 1020.1
20260502042037 13 0 0.0 1.6 0.00 0.00 0.00 33 1020.1
20260502041610 13 0 0.0 1.6 0.00 0.00 0.00 32 1020.2
20260502041038 13 0 0.0 1.6 0.00 0.00 0.00 32 1020.1
20260502040539 13 0 0.0 0.0 0.00 0.00 0.00 32 1020.1
20260502040051 13 0 0.0 0.0 0.00 0.00 0.00 33 1020.1
20260502035538 13 0 0.0 0.0 0.00 0.00 0.00 33 1020.1
20260502035037 13 0 0.0 0.0 0.00 0.00 0.00 33 1020.1
20260502034552 13 0 0.0 0.0 0.00 0.00 0.00 33 1020.1
20260502034039 14 0 0.0 1.6 0.00 0.00 0.00 31 1019.9
20260502033540 14 0 0.0 6.4 0.00 0.00 0.00 30 1019.9
20260502033103 14 0 0.0 6.4 0.00 0.00 0.00 29 1019.8
20260502032539 14 14 0.0 3.2 0.00 0.00 0.00 29 1019.6
20260502032039 14 0 0.0 3.2 0.00 0.00 0.00 29 1019.5
20260502031549 14 0 0.0 3.2 0.00 0.00 0.00 29 1019.5
20260502031043 14 0 0.0 3.2 0.00 0.00 0.00 28 1019.3
20260502030538 14 0 0.0 1.6 0.00 0.00 0.00 29 1019.3
20260502030056 15 0 0.0 1.6 0.00 0.00 0.00 31 1019.2
20260502025536 15 0 0.0 1.6 0.00 0.00 0.00 31 1019.2
20260502025038 15 0 0.0 3.2 0.00 0.00 0.00 30 1019.2
20260502024551 15 0 0.0 3.2 0.00 0.00 0.00 31 1019.1
20260502024038 15 0 0.0 0.0 0.00 0.00 0.00 31 1019.1
20260502023538 15 0 0.0 0.0 0.00 0.00 0.00 30 1019.2
20260502023054 15 0 0.0 0.0 0.00 0.00 0.00 29 1019.2
20260502022540 16 0 0.0 0.0 0.00 0.00 0.00 29 1019.1
20260502022040 16 0 0.0 0.0 0.00 0.00 0.00 30 1019.1
20260502021546 16 0 0.0 4.8 0.00 0.00 0.00 29 1019.1
20260502021040 16 0 0.0 6.4 0.00 0.00 0.00 29 1019.1
20260502020537 16 0 0.0 6.4 0.00 0.00 0.00 28 1019.1
20260502020053 16 0 0.0 4.8 0.00 0.00 0.00 28 1019.1
20260502015540 16 0 0.0 6.4 0.00 0.00 0.00 28 1019.1
20260502015037 16 0 0.0 11.3 0.00 0.00 0.00 28 1019.1
20260502014549 16 0 0.0 12.9 0.00 0.00 0.00 28 1019.1
20260502014038 16 0 0.0 12.9 0.00 0.00 0.00 27 1019.0
20260502013538 16 0 0.0 11.3 0.00 0.00 0.00 28 1019.1
20260502013052 17 0 0.0 9.7 0.00 0.00 0.00 28 1019.0
20260502012539 17 0 0.0 19.3 0.00 0.00 0.00 28 1018.9
20260502012040 17 311 0.0 19.3 0.00 0.00 0.00 27 1018.9
20260502011550 17 0 0.0 12.9 0.00 0.00 0.00 27 1018.8
20260502011039 17 286 1.6 12.9 0.00 0.00 0.00 27 1018.8
20260502010539 17 0 0.0 14.5 0.00 0.00 0.00 27 1018.8
20260502010059 17 281 0.0 14.5 0.00 0.00 0.00 26 1018.7
20260502005537 17 0 1.6 14.5 0.00 0.00 0.00 27 1018.8
20260502005038 17 0 0.0 16.1 0.00 0.00 0.00 26 1018.8
20260502004553 17 0 1.6 16.1 0.00 0.00 0.00 26 1018.8
20260502004039 17 0 1.6 14.5 0.00 0.00 0.00 26 1018.7
20260502003538 17 293 0.0 14.5 0.00 0.00 0.00 26 1018.7
20260502003049 17 0 1.6 19.3 0.00 0.00 0.00 26 1018.8
20260502002538 17 0 0.0 19.3 0.00 0.00 0.00 27 1018.7
20260502002038 17 283 4.8 20.9 0.00 0.00 0.00 26 1018.7
20260502001544 17 269 4.8 20.9 0.00 0.00 0.00 26 1018.8
20260502001041 17 293 1.6 17.7 0.00 0.00 0.00 26 1018.8
20260502000538 18 0 0.0 20.9 0.00 0.00 0.00 26 1018.8
20260502000045 18 312 1.6 20.9 0.00 0.00 0.00 26 1018.8
20260501235539 18 0 3.2 16.1 0.00 0.00 0.00 26 1018.8
20260501235039 18 0 0.0 17.7 0.00 0.00 0.00 26 1018.9
20260501234544 18 0 3.2 17.7 0.00 0.00 0.00 26 1018.9
20260501234038 18 0 1.6 20.9 0.00 0.00 0.00 26 1018.9
20260501233540 18 270 1.6 20.9 0.00 0.00 0.00 25 1018.9
20260501233045 18 302 0.0 14.5 0.00 0.00 0.00 26 1019.0
20260501232538 18 0 1.6 14.5 0.00 0.00 0.00 26 1019.0
20260501232038 18 292 0.0 12.9 0.00 0.00 0.00 25 1019.1
20260501231610 18 0 1.6 20.9 0.00 0.00 0.00 26 1019.1
20260501231039 18 0 3.2 20.9 0.00 0.00 0.00 25 1019.1
20260501230540 18 0 0.0 14.5 0.00 0.00 0.00 27 1019.1
20260501230049 18 0 0.0 19.3 0.00 0.00 0.00 25 1019.2
20260501225537 18 302 1.6 19.3 0.00 0.00 0.00 25 1019.1
20260501225036 18 0 0.0 11.3 0.00 0.00 0.00 24 1019.2
20260501224548 19 0 0.0 11.3 0.00 0.00 0.00 24 1019.3
20260501224040 19 0 0.0 11.3 0.00 0.00 0.00 26 1019.2
20260501223538 19 0 0.0 17.7 0.00 0.00 0.00 26 1019.4
20260501223111 19 5 1.6 17.7 0.00 0.00 0.00 27 1019.4
20260501222542 19 28 1.6 22.5 0.00 0.00 0.00 24 1019.4
20260501222038 19 0 0.0 22.5 0.00 0.00 0.00 25 1019.5
20260501221542 19 329 3.2 22.5 0.00 0.00 0.00 26 1019.6
20260501221038 19 0 4.8 22.5 0.00 0.00 0.00 25 1019.7
20260501220538 19 305 3.2 20.9 0.00 0.00 0.00 26 1019.8
20260501220052 18 0 1.6 20.9 0.00 0.00 0.00 26 1019.8
20260501215542 18 295 1.6 20.9 0.00 0.00 0.00 27 1019.8
20260501215039 18 300 3.2 20.9 0.00 0.00 0.00 27 1019.8
20260501214555 18 286 4.8 19.3 0.00 0.00 0.00 27 1019.8
20260501214040 18 249 1.6 19.3 0.00 0.00 0.00 27 1020.0
20260501213538 18 0 4.8 17.7 0.00 0.00 0.00 27 1020.0
20260501213047 18 279 0.0 17.7 0.00 0.00 0.00 27 1020.1
20260501212538 18 257 0.0 19.3 0.00 0.00 0.00 26 1020.1
20260501212044 18 0 1.6 19.3 0.00 0.00 0.00 27 1020.3
20260501211543 18 298 0.0 17.7 0.00 0.00 0.00 27 1020.3
20260501211038 18 0 3.2 17.7 0.00 0.00 0.00 26 1020.3
20260501210538 18 319 1.6 19.3 0.00 0.00 0.00 26 1020.4
20260501210044 18 0 0.0 22.5 0.00 0.00 0.00 28 1020.4
20260501205538 18 0 3.2 22.5 0.00 0.00 0.00 26 1020.3
20260501205039 19 0 0.0 20.9 0.00 0.00 0.00 26 1020.3
20260501204600 18 287 0.0 20.9 0.00 0.00 0.00 24 1020.4
20260501204037 18 272 3.2 20.9 0.00 0.00 0.00 24 1020.3
20260501203538 18 0 1.6 14.5 0.00 0.00 0.00 25 1020.3
20260501203050 18 0 1.6 16.1 0.00 0.00 0.00 25 1020.3
20260501202541 18 0 0.0 16.1 0.00 0.00 0.00 25 1020.3
20260501202038 18 0 0.0 12.9 0.00 0.00 0.00 24 1020.3
20260501201552 18 0 0.0 16.1 0.00 0.00 0.00 26 1020.3
20260501201038 18 0 1.6 17.7 0.00 0.00 0.00 24 1020.3
20260501200538 18 0 3.2 17.7 0.00 0.00 0.00 23 1020.2
20260501200047 18 259 0.0 20.9 0.00 0.00 0.00 25 1020.2
20260501195538 18 0 0.0 20.9 0.00 0.00 0.00 26 1020.3
20260501195038 18 0 0.0 16.1 0.00 0.00 0.00 24 1020.2
20260501194549 18 0 0.0 9.7 0.00 0.00 0.00 24 1020.3
20260501194037 19 0 0.0 3.2 0.00 0.00 0.00 24 1020.3
20260501193538 19 0 0.0 1.6 0.00 0.00 0.00 22 1020.3
20260501193051 19 0 0.0 4.8 0.00 0.00 0.00 23 1020.5
20260501192539 18 0 0.0 4.8 0.00 0.00 0.00 19 1020.5
20260501192043 18 0 0.0 4.8 0.00 0.00 0.00 22 1020.6
20260501191554 18 0 0.0 9.7 0.00 0.00 0.00 24 1020.6
20260501191040 18 0 0.0 9.7 0.00 0.00 0.00 24 1020.6
20260501190539 18 201 0.0 3.2 0.00 0.00 0.00 22 1020.7
20260501190046 18 0 0.0 1.6 0.00 0.00 0.00 22 1020.7
20260501185541 18 0 0.0 6.4 0.00 0.00 0.00 19 1020.8
20260501185038 18 0 0.0 6.4 0.00 0.00 0.00 24 1020.9
20260501184551 18 123 0.0 6.4 0.00 0.00 0.00 20 1020.9
20260501184042 18 171 0.0 4.8 0.00 0.00 0.00 21 1021.0
20260501183544 17 0 0.0 6.4 0.00 0.00 0.00 21 1021.0
20260501183046 17 0 0.0 6.4 0.00 0.00 0.00 22 1021.1
20260501182538 17 0 0.0 4.8 0.00 0.00 0.00 21 1021.2
20260501182038 17 0 0.0 4.8 0.00 0.00 0.00 24 1021.2
20260501181546 17 0 0.0 6.4 0.00 0.00 0.00 21 1021.2
20260501181045 17 0 0.0 6.4 0.00 0.00 0.00 23 1021.3
20260501180542 17 0 0.0 6.4 0.00 0.00 0.00 23 1021.3
20260501180100 17 0 0.0 6.4 0.00 0.00 0.00 23 1021.3
20260501175539 17 0 1.6 8.0 0.00 0.00 0.00 23 1021.4
20260501175038 16 0 0.0 11.3 0.00 0.00 0.00 25 1021.4
20260501174604 16 0 0.0 11.3 0.00 0.00 0.00 25 1021.5
20260501174041 16 148 1.6 17.7 0.00 0.00 0.00 24 1021.5
20260501173543 16 156 0.0 19.3 0.00 0.00 0.00 24 1021.6
20260501173051 16 0 3.2 19.3 0.00 0.00 0.00 23 1021.5
20260501172541 16 0 0.0 8.0 0.00 0.00 0.00 23 1021.5
20260501172039 15 0 0.0 6.4 0.00 0.00 0.00 26 1021.5
20260501171552 15 0 0.0 17.7 0.00 0.00 0.00 24 1021.7
20260501171041 15 121 1.6 17.7 0.00 0.00 0.00 26 1021.6
20260501170541 15 121 3.2 17.7 0.00 0.00 0.00 25 1021.7
20260501170049 15 0 1.6 17.7 0.00 0.00 0.00 27 1021.6
20260501165538 14 121 1.6 17.7 0.00 0.00 0.00 26 1021.6
20260501165038 14 171 0.0 17.7 0.00 0.00 0.00 27 1021.6
20260501164551 15 0 0.0 24.1 0.00 0.00 0.00 27 1021.6
20260501164042 15 88 4.8 24.1 0.00 0.00 0.00 26 1021.6
20260501163542 14 0 3.2 20.9 0.00 0.00 0.00 27 1021.6
20260501163051 14 124 3.2 24.1 0.00 0.00 0.00 26 1021.7
20260501162542 13 131 3.2 24.1 0.00 0.00 0.00 26 1021.6